Location: Unspecified
(0.0000°N, 0.0000°E)
Time: 21:02:50
(UTC+02:00)

Ariane H10 - Visible Passes

Search period start: 21 April 2015 00:00
Search period end: 01 May 2015 00:00
Orbit: 424 x 35086 km, 4.3° (Epoch: 19 April)

Date Brightness Start Highest point End Pass type
(mag) Time Alt. Az. Time Alt. Az. Time Alt. Az.
22 Apr 5.8 04:17:36 80° SSE 04:17:36 80° SSE 13:50:40 10° E visible
23 Apr 2.2 21:08:44 10° W 21:17:59 73° S 21:18:57 46° ESE visible
25 Apr 5.8 04:50:54 71° WSW 04:55:18 84° S 14:27:34 10° E visible
26 Apr 7.3 01:34:41 12° E 01:34:41 12° E 01:36:49 10° E visible
26 Apr 7.3 01:34:43 12° E 01:34:43 12° E 01:36:50 10° E visible
26 Apr 3.0 21:47:39 10° W 21:52:02 42° WSW 21:52:02 42° WSW visible
28 Apr 6.0 05:24:07 52° W 05:36:11 87° S 15:03:39 10° E visible
29 Apr 7.0 02:07:53 24° E 02:07:53 24° E 11:20:20 10° E visible
29 Apr 4.9 22:24:28 10° W 22:25:01 13° W 22:25:01 13° W visible
